| time (UTC) | temp F | wind direction | speed knots | gust knots | rain 1hr in | rain 24hr in | rain mn in | humidity % | barometer mb |
| 20260509080603 | 46 | 62 | 0.0 | 0.9 | 0.00 | 0.00 | 0.00 | 95 | 1007.2 |
| 20260509075604 | 46 | 62 | 0.0 | 0.9 | 0.00 | 0.00 | 0.00 | 95 | 1007.3 |
| 20260509072642 | 46 | 62 | 0.0 | 0.9 | 0.00 | 0.00 | 0.00 | 94 | 1007.1 |
| 20260509071606 | 46 | 62 | 0.9 | 1.7 | 0.00 | 0.00 | 0.00 | 93 | 1007.1 |
| 20260509070635 | 46 | 62 | 0.9 | 1.7 | 0.00 | 0.00 | 0.00 | 93 | 1007.2 |
| 20260509064635 | 46 | 62 | 0.0 | 0.0 | 0.00 | 0.00 | 0.00 | 92 | 1007.6 |
| 20260509063644 | 46 | 62 | 0.0 | 1.7 | 0.00 | 0.00 | 0.00 | 92 | 1008.0 |
| 20260509062611 | 46 | 62 | 0.0 | 1.7 | 0.00 | 0.00 | 0.00 | 92 | 1008.2 |
| 20260509061604 | 46 | 62 | 0.0 | 0.9 | 0.00 | 0.00 | 0.00 | 92 | 1008.2 |
| 20260509060619 | 46 | 62 | 0.9 | 1.7 | 0.00 | 0.00 | 0.00 | 92 | 1008.5 |
| 20260509055607 | 46 | 62 | 0.9 | 1.7 | 0.00 | 0.00 | 0.00 | 91 | 1008.5 |
| 20260509054601 | 47 | 62 | 0.9 | 1.7 | 0.00 | 0.00 | 0.00 | 90 | 1008.5 |
| 20260509052624 | 47 | 62 | 0.9 | 2.6 | 0.00 | 0.00 | 0.00 | 89 | 1008.8 |
| 20260509051636 | 47 | 74 | 2.6 | 2.6 | 0.00 | 0.00 | 0.00 | 88 | 1008.8 |
| 20260509050609 | 48 | 179 | 0.0 | 0.0 | 0.00 | 0.00 | 0.00 | 86 | 1009.2 |
| 20260509045615 | 48 | 179 | 0.0 | 0.9 | 0.00 | 0.00 | 0.00 | 85 | 1009.1 |
| 20260509044617 | 48 | 179 | 0.0 | 0.0 | 0.00 | 0.00 | 0.00 | 84 | 1009.1 |
| 20260509043612 | 48 | 179 | 0.0 | 0.0 | 0.00 | 0.00 | 0.00 | 83 | 1009.0 |
| 20260509042639 | 49 | 179 | 0.0 | 0.9 | 0.00 | 0.00 | 0.00 | 81 | 1008.9 |
| 20260509040612 | 49 | 311 | 0.0 | 5.2 | 0.00 | 0.00 | 0.00 | 80 | 1009.1 |
| 20260509035602 | 49 | 307 | 4.3 | 6.1 | 0.00 | 0.00 | 0.00 | 80 | 1009.2 |
| 20260509034601 | 49 | 303 | 4.3 | 7.0 | 0.00 | 0.00 | 0.00 | 81 | 1009.2 |
| 20260509033633 | 48 | 282 | 1.7 | 4.3 | 0.00 | 0.00 | 0.00 | 84 | 1009.3 |
| 20260509032634 | 48 | 312 | 0.0 | 3.5 | 0.00 | 0.00 | 0.00 | 85 | 1009.1 |
| 20260509031626 | 48 | 333 | 0.0 | 1.7 | 0.00 | 0.00 | 0.00 | 85 | 1009.1 |
| 20260509030622 | 48 | 349 | 0.9 | 1.7 | 0.00 | 0.00 | 0.00 | 85 | 1009.0 |
| 20260509025615 | 48 | 349 | 0.0 | 1.7 | 0.00 | 0.00 | 0.00 | 84 | 1009.1 |
| 20260509024631 | 48 | 179 | 0.0 | 1.7 | 0.00 | 0.00 | 0.00 | 83 | 1009.1 |
| 20260509023612 | 48 | 198 | 0.9 | 2.6 | 0.00 | 0.00 | 0.00 | 82 | 1009.1 |
| 20260509022633 | 48 | 200 | 0.9 | 2.6 | 0.00 | 0.00 | 0.00 | 82 | 1009.2 |
| 20260509021621 | 48 | 311 | 0.9 | 4.3 | 0.00 | 0.00 | 0.00 | 83 | 1009.2 |
| 20260509015644 | 49 | 282 | 0.9 | 0.9 | 0.00 | 0.01 | 0.00 | 81 | 1008.9 |
| 20260509014633 | 50 | 282 | 0.0 | 1.7 | 0.00 | 0.01 | 0.00 | 80 | 1008.9 |
| 20260509013631 | 50 | 242 | 0.9 | 2.6 | 0.00 | 0.01 | 0.00 | 78 | 1008.9 |
| 20260509012635 | 50 | 250 | 0.9 | 5.2 | 0.00 | 0.01 | 0.00 | 76 | 1009.0 |
| 20260509011635 | 51 | 252 | 0.9 | 6.1 | 0.00 | 0.01 | 0.00 | 74 | 1009.0 |
| 20260509010644 | 51 | 263 | 0.9 | 6.1 | 0.00 | 0.01 | 0.00 | 73 | 1008.3 |
| 20260509004601 | 51 | 318 | 0.9 | 4.3 | 0.00 | 0.01 | 0.00 | 72 | 1008.0 |
| 20260509003633 | 52 | 250 | 0.9 | 5.2 | 0.00 | 0.01 | 0.00 | 70 | 1008.2 |
| 20260509001636 | 52 | 247 | 2.6 | 8.7 | 0.00 | 0.01 | 0.00 | 68 | 1011.8 |
| 20260509000633 | 53 | 258 | 2.6 | 6.1 | 0.00 | 0.01 | 0.00 | 68 | 1011.6 |
| 20260508235633 | 53 | 242 | 4.3 | 11.3 | 0.00 | 0.01 | 0.00 | 68 | 1011.5 |
| 20260508234619 | 53 | 236 | 1.7 | 15.6 | 0.00 | 0.01 | 0.00 | 69 | 1011.5 |
| 20260508231604 | 54 | 242 | 2.6 | 11.3 | 0.00 | 0.01 | 0.00 | 68 | 1011.5 |
| 20260508230643 | 54 | 238 | 3.5 | 11.3 | 0.00 | 0.01 | 0.00 | 69 | 1011.2 |
| 20260508225612 | 54 | 268 | 1.7 | 11.3 | 0.00 | 0.01 | 0.00 | 68 | 1011.1 |
| 20260508223625 | 54 | 245 | 4.3 | 14.8 | 0.00 | 0.01 | 0.00 | 68 | 1011.1 |
| 20260508222614 | 54 | 250 | 4.3 | 13.9 | 0.00 | 0.01 | 0.00 | 69 | 1011.1 |
| 20260508221609 | 54 | 251 | 2.6 | 12.2 | 0.00 | 0.01 | 0.00 | 70 | 1011.1 |
| 20260508220610 | 54 | 255 | 5.2 | 14.8 | 0.00 | 0.01 | 0.00 | 69 | 1011.3 |
| 20260508215638 | 53 | 235 | 5.2 | 12.2 | 0.00 | 0.01 | 0.00 | 73 | 1011.3 |
| 20260508214628 | 52 | 263 | 1.7 | 9.6 | 0.00 | 0.01 | 0.00 | 77 | 1011.3 |
| 20260508213636 | 52 | 263 | 2.6 | 5.2 | 0.00 | 0.01 | 0.00 | 78 | 1011.3 |
| 20260508212621 | 51 | 279 | 1.7 | 7.0 | 0.00 | 0.01 | 0.00 | 79 | 1011.1 |
| 20260508211607 | 51 | 287 | 1.7 | 10.4 | 0.00 | 0.01 | 0.00 | 80 | 1011.1 |
| 20260508210609 | 50 | 271 | 2.6 | 8.7 | 0.00 | 0.01 | 0.00 | 81 | 1011.2 |
| 20260508205609 | 50 | 284 | 2.6 | 5.2 | 0.00 | 0.01 | 0.00 | 81 | 1011.6 |
| 20260508204636 | 50 | 269 | 0.9 | 2.6 | 0.00 | 0.01 | 0.00 | 81 | 1011.6 |
| 20260508203639 | 51 | 269 | 1.7 | 12.2 | 0.00 | 0.01 | 0.00 | 78 | 1011.9 |
| 20260508202646 | 52 | 235 | 5.2 | 17.4 | 0.00 | 0.01 | 0.00 | 72 | 1011.6 |
| 20260508201625 | 55 | 253 | 8.7 | 21.7 | 0.00 | 0.01 | 0.00 | 60 | 1011.6 |
| 20260508200613 | 57 | 248 | 8.7 | 19.1 | 0.00 | 0.01 | 0.00 | 52 | 1011.1 |
| 20260508195633 | 57 | 257 | 3.5 | 12.2 | 0.00 | 0.01 | 0.00 | 52 | 1011.0 |
| 20260508194631 | 57 | 231 | 7.0 | 15.6 | 0.00 | 0.01 | 0.00 | 52 | 1011.0 |
| 20260508193605 | 56 | 259 | 4.3 | 12.2 | 0.00 | 0.01 | 0.00 | 52 | 1011.1 |
| 20260508192621 | 55 | 184 | 0.9 | 4.3 | 0.00 | 0.01 | 0.00 | 59 | 1011.2 |
| 20260508190628 | 55 | 306 | 2.6 | 6.1 | 0.00 | 0.01 | 0.00 | 59 | 1011.1 |
| 20260508185604 | 55 | 351 | 4.3 | 7.8 | 0.00 | 0.01 | 0.00 | 60 | 1011.1 |
| 20260508184644 | 56 | 11 | 4.3 | 9.6 | 0.00 | 0.01 | 0.00 | 59 | 1011.1 |
| 20260508183644 | 55 | 348 | 4.3 | 9.6 | 0.00 | 0.01 | 0.00 | 58 | 1011.6 |
| 20260508182610 | 56 | 300 | 7.0 | 11.3 | 0.00 | 0.01 | 0.00 | 53 | 1011.1 |
| 20260508180611 | 56 | 245 | 6.1 | 11.3 | 0.00 | 0.01 | 0.00 | 52 | 1011.6 |
| 20260508175626 | 56 | 298 | 4.3 | 9.6 | 0.00 | 0.01 | 0.00 | 53 | 1012.0 |
| 20260508174646 | 56 | 246 | 3.5 | 15.6 | 0.00 | 0.01 | 0.00 | 55 | 1012.0 |
| 20260508173624 | 56 | 314 | 5.2 | 8.7 | 0.00 | 0.01 | 0.00 | 56 | 1012.0 |
| 20260508172618 | 54 | 351 | 2.6 | 7.8 | 0.00 | 0.01 | 0.00 | 62 | 1012.3 |
| 20260508171642 | 51 | 268 | 2.6 | 11.3 | 0.00 | 0.01 | 0.00 | 65 | 1012.3 |
| 20260508165613 | 55 | 241 | 6.1 | 12.2 | 0.00 | 0.01 | 0.00 | 52 | 1012.2 |
| 20260508164617 | 55 | 244 | 7.0 | 16.5 | 0.00 | 0.01 | 0.00 | 50 | 1012.2 |
| 20260508163623 | 55 | 245 | 5.2 | 11.3 | 0.00 | 0.01 | 0.00 | 53 | 1012.2 |
| 20260508162614 | 55 | 297 | 3.5 | 10.4 | 0.00 | 0.01 | 0.00 | 52 | 1012.3 |
| 20260508161632 | 55 | 280 | 2.6 | 13.0 | 0.00 | 0.01 | 0.00 | 51 | 1012.3 |
| 20260508155619 | 54 | 256 | 7.0 | 17.4 | 0.00 | 0.01 | 0.00 | 52 | 1012.5 |
| 20260508153636 | 55 | 293 | 1.7 | 11.3 | 0.00 | 0.01 | 0.00 | 56 | 1012.4 |
| 20260508152626 | 55 | 295 | 12.2 | 21.7 | 0.00 | 0.01 | 0.00 | 51 | 1012.4 |
| 20260508150618 | 55 | 247 | 7.0 | 17.4 | 0.00 | 0.01 | 0.00 | 55 | 1012.3 |
| 20260508145627 | 54 | 264 | 3.5 | 13.9 | 0.00 | 0.01 | 0.00 | 54 | 1012.0 |
| 20260508144623 | 54 | 229 | 8.7 | 16.5 | 0.00 | 0.01 | 0.00 | 55 | 1012.0 |
| 20260508143645 | 53 | 241 | 7.8 | 16.5 | 0.00 | 0.01 | 0.00 | 54 | 1012.3 |
| 20260508142600 | 53 | 239 | 7.8 | 18.2 | 0.00 | 0.01 | 0.00 | 53 | 1012.6 |
| 20260508141609 | 53 | 255 | 6.1 | 15.6 | 0.00 | 0.01 | 0.00 | 55 | 1012.6 |
| 20260508135636 | 51 | 202 | 2.6 | 9.6 | 0.00 | 0.01 | 0.00 | 61 | 1012.6 |
| 20260508134622 | 50 | 206 | 4.3 | 10.4 | 0.00 | 0.01 | 0.00 | 63 | 1012.6 |
| 20260508133617 | 49 | 192 | 4.3 | 10.4 | 0.00 | 0.01 | 0.00 | 63 | 1012.7 |
| 20260508131621 | 46 | 244 | 4.3 | 7.0 | 0.00 | 0.01 | 0.00 | 69 | 1012.8 |
| 20260508130607 | 45 | 243 | 0.9 | 6.1 | 0.00 | 0.01 | 0.00 | 74 | 1013.1 |
| 20260508125603 | 44 | 249 | 1.7 | 6.1 | 0.00 | 0.01 | 0.00 | 74 | 1012.9 |
| 20260508124608 | 43 | 251 | 0.9 | 5.2 | 0.00 | 0.01 | 0.00 | 76 | 1012.9 |
| 20260508123611 | 42 | 244 | 2.6 | 5.2 | 0.00 | 0.01 | 0.00 | 77 | 1013.0 |
| 20260508122604 | 41 | 214 | 1.7 | 4.3 | 0.00 | 0.01 | 0.00 | 81 | 1013.0 |
| 20260508121608 | 40 | 224 | 0.9 | 1.7 | 0.00 | 0.01 | 0.00 | 84 | 1013.0 |
| 20260508115645 | 38 | 224 | 0.0 | 0.0 | 0.00 | 0.01 | 0.00 | 86 | 1012.9 |
| 20260508114632 | 38 | 224 | 0.0 | 0.0 | 0.00 | 0.01 | 0.00 | 88 | 1012.9 |
| 20260508112603 | 37 | 224 | 0.0 | 0.0 | 0.00 | 0.01 | 0.00 | 89 | 1013.2 |
| 20260508111622 | 36 | 224 | 0.0 | 0.0 | 0.00 | 0.01 | 0.00 | 90 | 1013.2 |
| 20260508110621 | 35 | 224 | 0.0 | 0.9 | 0.00 | 0.01 | 0.00 | 91 | 1013.2 |
| 20260508105611 | 35 | 224 | 0.0 | 0.9 | 0.00 | 0.01 | 0.00 | 91 | 1012.9 |
| 20260508104606 | 35 | 224 | 0.0 | 0.9 | 0.00 | 0.01 | 0.00 | 91 | 1012.9 |
| 20260508103637 | 34 | 224 | 0.0 | 1.7 | 0.00 | 0.01 | 0.00 | 91 | 1012.8 |
| 20260508102611 | 34 | 224 | 0.0 | 1.7 | 0.00 | 0.01 | 0.00 | 92 | 1013.2 |
| 20260508100626 | 33 | 215 | 0.9 | 2.6 | 0.00 | 0.01 | 0.00 | 91 | 1013.3 |
| 20260508095638 | 33 | 215 | 0.0 | 0.0 | 0.00 | 0.01 | 0.00 | 90 | 1013.1 |
| 20260508093622 | 33 | 215 | 0.0 | 0.0 | 0.00 | 0.01 | 0.00 | 89 | 1013.1 |
| 20260508091616 | 34 | 215 | 0.0 | 0.0 | 0.00 | 0.01 | 0.00 | 88 | 1013.0 |
| 20260508090622 | 34 | 215 | 0.0 | 0.0 | 0.00 | 0.01 | 0.00 | 88 | 1013.0 |
| 20260508085615 | 34 | 215 | 0.0 | 0.0 | 0.00 | 0.01 | 0.00 | 88 | 1012.8 |
| 20260508084615 | 35 | 215 | 0.0 | 0.0 | 0.00 | 0.01 | 0.00 | 87 | 1012.8 |
| 20260508083628 | 35 | 215 | 0.0 | 0.0 | 0.00 | 0.01 | 0.00 | 87 | 1012.8 |
| 20260508082608 | 35 | 215 | 0.0 | 0.0 | 0.00 | 0.01 | 0.00 | 86 | 1012.8 |
| 20260508081611 | 35 | 215 | 0.0 | 0.0 | 0.00 | 0.01 | 0.00 | 85 | 1012.8 |